Regional Weather Roundup
Issued by NWS

Home | Current Version | Previous Version | Text Only | Print | Product List | Glossary On
Versions: 1 2 3 4 5 6 7 8 9 10 11 12 13 14 15 16 17 18 19 20 21 22 23 24 25 26 27 28 29 30 31 32 33 34 35 36 37 38 39 40 41 42 43 44 45 46 47 48 49 50
000
ASUS43 KFSD 230810
RWRSD

WEATHER ROUNDUP FOR SOUTH DAKOTA
NATIONAL WEATHER SERVICE SIOUX FALLS SD
300 AM CDT SAT JUL 23 2016

NOTE: "FAIR" INDICATES FEW OR NO CLOUDS BELOW 12,000 FEET WITH NO
SIGNIFICANT WEATHER AND/OR OBSTRUCTIONS TO VISIBILITY.


SDZ001>005-009-010-012>017-230900-
NORTHWEST AND NORTH CENTRAL SOUTH DAKOTA

CITY           SKY/WX    TMP DP  RH WIND       PRES   REMARKS
BUFFALO          N/A     68  60  75 E16       29.82S
FAITH            N/A     70  59  68 E13       29.91F
MOBRIDGE       CLOUDY    70  60  70 NE8G23    29.86F
$$

SDZ012>016-024>037-041>051-057-063-072>074-230900-
SOUTHWEST AND SOUTH CENTRAL SOUTH DAKOTA

CITY           SKY/WX    TMP DP  RH WIND       PRES   REMARKS
RAPID CTY ARPT MOCLDY    71  55  56 NE10      29.92R
PIERRE         CLOUDY    78  70  76 E17       29.81F
CUSTER         CLOUDY    69  51  52 SW8       30.07S
ELLSWORTH AFB  CLOUDY    75  54  47 NE8       29.92R
PHILIP         CLOUDY    75  72  90 E7        29.87F
PINE RIDGE     CLOUDY    73  59  61 SE7       29.94F
WINNER         FAIR      82  76  81 E8        29.88F
$$

SDZ004>011-016>023-039-040-230900-
NORTHEAST SOUTH DAKOTA

CITY           SKY/WX    TMP DP  RH WIND       PRES   REMARKS
ABERDEEN       CLOUDY    73  68  84 NE8       29.91F
WATERTOWN      CLOUDY    77  66  68 NE6       29.95R
BROOKINGS      CLOUDY    76  72  87 NE8       29.92F
SISSETON         N/A     71  70  96 CALM      29.94R
$$

SDZ017-020-022-023-036>040-048>070-230900-
SOUTHEAST SOUTH DAKOTA

CITY           SKY/WX    TMP DP  RH WIND       PRES   REMARKS
SIOUX FALLS    PTCLDY    80  77  90 E7        29.89F
HURON          CLOUDY    77  72  84 E8        29.86F
CHAMBERLAIN    MOCLDY    81  80  98 E6        29.88S
MITCHELL       MOCLDY    80  78  94 SE6       29.87S
YANKTON        CLOUDY    81  77  89 E6        29.84F
$$

ABBREVIATIONS USED IN REMARKS
   TC - TEMPERATURE IN CELSIUS
  WCI - WIND CHILL INDEX
   HX - HEAT INDEX
  VSB - VISIBILITY




USA.gov is the U.S. government's official web portal to all federal, state and local government web resources and services.